[[{"header":{"parameterUnit":"m.s-1","parameterCategory":2,"la1":30.2991,"la2":30.254,"lo1":-89.0895,"lo2":-89.0444,"dy":0.0017,"dx":0.0017,"nx":28,"ny":28,"refTime":"2025-04-18T09:00:00:Z","depth":"0","parameterNumber":2,"parameterNumberName":"U-component_of_CURRENTS"},"data":[0,0,0,0,0,0,0,0,0,0,0,0,0,0,0,0,0,0,0,0,0,0,0,0,0,0,0,0,0,0,0,0,0,0,0,0,0,0,0,0,0,0,0,0,0,0,0,0,0,0,0,0,0,0,0,0,0,0,0.1964,0.1964,0,0.197,0.197,0.197,0.1956,0.1955,0.1955,0.1955,0.1962,0.1962,0.1963,0,0,0,0,0,0,0,0,0,0,0,0,0,0.1967,0.1967,0.1964,0.1964,0.1965,0.197,0.197,0.197,0.1956,0.1955,0.1955,0.1954,0.1961,0.1962,0.1963,0,0,0,0,0,0,0,0,0,0,0,0,0,0.1968,0.1967,0.1964,0.1959,0.1958,0.197,0.197,0.197,0.1956,0.1955,0.1955,0.1954,0.1961,0.1962,0.1963,0.198,0,0,0.1965,0.1966,0,0,0,0,0,0,0,0,0.1968,0.1968,0.1959,0.1959,0.1959,0.1962,0.1973,0.1973,0.1956,0.1956,0.1955,0.1954,0.1963,0.1963,0.1965,0.198,0.1981,0.1966,0.1966,0.1966,0.1967,0,0,0,0,0,0,0,0.1968,0.1968,0.1966,0.1959,0.1959,0.1964,0.1964,0.1973,0.1962,0.1956,0.1955,0.1957,0.1962,0.1964,0.1965,0.1981,0.1965,0.1966,0.1967,0.1967,0.2029,0.203,0,0,0,0,0,0,0.1968,0.1968,0.1966,0.1966,0.1962,0.1965,0.1964,0.1961,0.1962,0.1962,0.1957,0.1956,0.1963,0.1964,0.1965,0.1999,0.1966,0.1967,0.1968,0.2028,0.2029,0.203,0,0,0,0,0,0,0.1968,0.1967,0.1966,0.1968,0.1968,0.1965,0.1962,0.1961,0.1963,0.1963,0.1963,0.196,0.1963,0.1964,0.1978,0.1999,0.1968,0.1968,0.2026,0.2028,0.203,0.2058,0,0,0,0,0,0,0.1968,0.1967,0.1967,0.1967,0.1968,0.1975,0.1963,0.1962,0.1965,0.1964,0.1966,0.1965,0.1962,0.1977,0.1979,0.1999,0.1969,0.2025,0.2027,0.2029,0.2056,0.2061,0.2065,0,0,0,0,0,0.1968,0.1968,0.1967,0.1967,0.1967,0.1975,0.1976,0.1972,0.1966,0.1971,0.1973,0.1965,0.1992,0.1978,0.1981,0.2002,0.2024,0.2027,0.2029,0.2054,0.206,0.2065,0,0,0,0,0,0,0.1968,0.1967,0.1965,0.1964,0.1971,0.1973,0.1977,0.1976,0.1981,0.198,0.1977,0.1977,0.2004,0.1998,0.1983,0.2027,0.2009,0.2012,0.2027,0.2032,0.2037,0.2046,0.197,0,0,0,0,0,0.197,0.1968,0.1972,0.1973,0.1976,0.1978,0.1981,0.1981,0.1985,0.1987,0.1987,0.1996,0.2018,0.2019,0.2036,0.2052,0.2074,0.2069,0.2073,0.2077,0.2087,0.2155,0.2167,0.2039,0.2039,0.2039,0,0,0.197,0.197,0.1968,0.1973,0.1977,0.1984,0.1978,0.1986,0.1995,0.1988,0.1999,0.2015,0.2029,0.2054,0.2064,0.2047,0.2123,0.208,0.2083,0.2091,0.2159,0.2172,0.2183,0.2041,0.204,0.204,0,0,0.1972,0.1971,0.1972,0.1979,0.1988,0.1991,0.1995,0.2,0.2006,0.2025,0.2029,0.2057,0.2072,0.209,0.2101,0.2141,0.2152,0.2144,0.2164,0.223,0.2241,0.2251,0.2284,0.2297,0.2136,0.2136,0.2136,0,0.1973,0.1971,0.1976,0.1982,0.1989,0.1994,0.2003,0.2013,0.2022,0.2041,0.2032,0.2094,0.2095,0.2146,0.2153,0.2153,0.2182,0.214,0.2237,0.2247,0.2257,0.2288,0.2302,0.2138,0.2138,0.2137,0.2137,0,0.1975,0.1977,0.198,0.1987,0.2,0.2007,0.2023,0.2039,0.205,0.2068,0.2124,0.2141,0.2181,0.2185,0.2177,0.2248,0.2243,0.2243,0.2222,0.2272,0.2301,0.2315,0.214,0.214,0.2139,0.2139,0,0,0.1965,0.1977,0.1977,0.1981,0.2003,0.2009,0.204,0.2072,0.21,0.2128,0.2182,0.2217,0.224,0.2256,0.2262,0.2302,0.2383,0.2297,0.2299,0.2328,0.2515,0.2425,0.2431,0.2406,0.2409,0.2411,0.2501,0,0.1962,0.1968,0.1981,0.1991,0.1996,0.2023,0.2053,0.2089,0.2125,0.2177,0.2227,0.2279,0.2264,0.2292,0.2337,0.2383,0.2424,0.2357,0.2463,0.2466,0.2381,0.2446,0.2349,0.2415,0.2515,0.2517,0.2519,0,0.1954,0.196,0.1968,0.1994,0.2001,0.2013,0.2068,0.2097,0.2181,0.2218,0.2291,0.2336,0.2413,0.2391,0.2506,0.2467,0.2495,0.2519,0.2524,0.2442,0.2404,0.2385,0.2437,0.2407,0.2541,0.2539,0.2537,0,0.1932,0.1948,0.1951,0.1958,0.1993,0.2012,0.2038,0.2111,0.2155,0.2253,0.2314,0.2407,0.2474,0.2538,0.2589,0.2562,0.2709,0.268,0.2625,0.2618,0.2556,0.2538,0.2591,0.2767,0.2767,0.2767,0.2767,0,0.1917,0.1917,0.1937,0.1937,0.1956,0.1995,0.2039,0.2084,0.2179,0.2249,0.2335,0.2416,0.252,0.2612,0.2634,0.2677,0.2755,0.2646,0.2648,0.2559,0.2541,0.2526,0.25,0.277,0.2769,0.2769,0.2768,0,0.1888,0.19,0.1901,0.1931,0.1942,0.1957,0.2027,0.2066,0.2163,0.2266,0.2309,0.2457,0.2564,0.2645,0.2755,0.2733,0.2687,0.2769,0.2636,0.2618,0.2486,0.2463,0.23,0.2248,0.2715,0.2713,0.2712,0,0.1873,0.1869,0.1886,0.1885,0.1894,0.1926,0.1955,0.2045,0.21,0.2282,0.2335,0.2483,0.2572,0.2693,0.2684,0.2715,0.2645,0.263,0.2548,0.2479,0.2458,0.2264,0.222,0.2482,0.2479,0.2477,0.2475,0,0.1844,0.1846,0.1846,0.1848,0.1861,0.1886,0.1939,0.1987,0.2114,0.2211,0.2346,0.2437,0.2547,0.2546,0.2579,0.2575,0.247,0.2574,0.2568,0.2331,0.2063,0.2013,0.2404,0.2453,0.2455,0.2457,0.2458,0.2459,0.1818,0.1807,0.1805,0.1804,0.1818,0.1843,0.1865,0.194,0.2028,0.2164,0.2275,0.2359,0.2433,0.2451,0.2434,0.2342,0.2281,0.228,0.2275,0.2097,0.1981,0.2291,0.2292,0.2293,0.2295,0.2295,0.2296,0,0.1779,0.177,0.1763,0.1761,0.1762,0.1789,0.185,0.1875,0.1956,0.2055,0.215,0.2206,0.2205,0.2236,0.2183,0.2094,0.1947,0.2044,0.1813,0.1805,0.2172,0.2102,0.1982,0.1982,0.1982,0.1982,0.1982,0.1982,0.1758,0.1731,0.1725,0.1706,0.171,0.1715,0.1743,0.1784,0.1839,0.1893,0.1913,0.1966,0.206,0.2058,0.1986,0.1939,0.1784,0.1605,0.164,0.1987,0.201,0.2032,0.1962,0.1815,0.1815,0.1169,0.1165,0.1162]},{"header":{"parameterUnit":"m.s-1","parameterCategory":2,"la1":30.2991,"la2":30.254,"lo1":-89.0895,"lo2":-89.0444,"dy":0.0017,"dx":0.0017,"nx":28,"ny":28,"refTime":"2025-04-18T09:00:00:Z","depth":"0","parameterNumber":3,"parameterNumberName":"V-component_of_CURRENTS"},"data":[0,0,0,0,0,0,0,0,0,0,0,0,0,0,0,0,0,0,0,0,0,0,0,0,0,0,0,0,0,0,0,0,0,0,0,0,0,0,0,0,0,0,0,0,0,0,0,0,0,0,0,0,0,0,0,0,0,0,0.0273,0.0273,0,0.0256,0.0256,0.0255,0.0237,0.0237,0.0237,0.0236,0.0214,0.0214,0.0213,0,0,0,0,0,0,0,0,0,0,0,0,0,0.0273,0.0273,0.0273,0.0273,0.0273,0.0256,0.0256,0.0255,0.0237,0.0237,0.0236,0.0236,0.0214,0.0214,0.0213,0,0,0,0,0,0,0,0,0,0,0,0,0,0.0266,0.0273,0.0273,0.0262,0.0261,0.0256,0.0256,0.0255,0.0237,0.0237,0.0236,0.0236,0.0214,0.0214,0.0213,0.0217,0,0,0.0212,0.0211,0,0,0,0,0,0,0,0,0.0266,0.0266,0.0264,0.0263,0.0261,0.0248,0.0247,0.0242,0.0237,0.0246,0.0236,0.0236,0.0226,0.0224,0.0221,0.0216,0.0215,0.0212,0.0211,0.0211,0.0211,0,0,0,0,0,0,0,0.0267,0.0266,0.0266,0.0264,0.0262,0.0251,0.025,0.0246,0.0238,0.0245,0.0244,0.0242,0.0225,0.0222,0.0221,0.0215,0.0212,0.0211,0.0211,0.0211,0.0213,0.0213,0,0,0,0,0,0,0.0271,0.0267,0.0267,0.0266,0.0263,0.0252,0.025,0.0253,0.0238,0.0235,0.0243,0.0241,0.0223,0.0221,0.022,0.0237,0.0211,0.021,0.021,0.0213,0.0213,0.0213,0,0,0,0,0,0,0.0271,0.0271,0.0267,0.0266,0.0264,0.0252,0.0255,0.0253,0.0251,0.0236,0.0233,0.0243,0.0223,0.0221,0.022,0.0236,0.021,0.021,0.0212,0.0213,0.0213,0.0263,0,0,0,0,0,0,0.0271,0.0271,0.0274,0.0266,0.0265,0.027,0.0255,0.0253,0.025,0.0249,0.0236,0.0233,0.0222,0.0221,0.022,0.0234,0.0209,0.0212,0.0212,0.0213,0.0261,0.0266,0.0269,0,0,0,0,0,0.0271,0.028,0.0275,0.0275,0.027,0.027,0.0269,0.0258,0.0251,0.0255,0.0245,0.0234,0.0225,0.0221,0.022,0.0234,0.0211,0.0212,0.0213,0.0259,0.0265,0.0269,0,0,0,0,0,0,0.028,0.0279,0.0273,0.028,0.0277,0.0267,0.0269,0.0262,0.0257,0.0256,0.024,0.0237,0.0242,0.023,0.0226,0.0236,0.0216,0.0216,0.0252,0.0256,0.0261,0.0279,0.0209,0,0,0,0,0,0.0285,0.029,0.0285,0.029,0.0291,0.028,0.0279,0.0273,0.0267,0.0265,0.0255,0.0246,0.0245,0.0244,0.0237,0.0244,0.0238,0.0251,0.0255,0.0259,0.0272,0.028,0.0286,0.0216,0.0216,0.0216,0,0,0.0288,0.0288,0.0291,0.0293,0.0289,0.0299,0.0279,0.0281,0.0291,0.0264,0.0273,0.026,0.0249,0.0257,0.0258,0.0249,0.0273,0.026,0.0263,0.0275,0.0282,0.0288,0.0295,0.0217,0.0217,0.0217,0,0,0.0304,0.0301,0.0313,0.0315,0.0314,0.0311,0.0314,0.0308,0.0307,0.0314,0.0297,0.0297,0.0289,0.0289,0.0288,0.0311,0.0293,0.0302,0.0342,0.0349,0.0355,0.036,0.0352,0.0356,0.0306,0.0306,0.0306,0,0.0309,0.0324,0.0316,0.033,0.0337,0.0321,0.0339,0.0338,0.0332,0.0341,0.0323,0.0328,0.031,0.0334,0.0336,0.0322,0.0316,0.0325,0.0356,0.0361,0.0366,0.0356,0.036,0.0308,0.0308,0.0308,0.0308,0,0.0336,0.0348,0.0356,0.0371,0.0377,0.0389,0.0389,0.0397,0.0391,0.0392,0.041,0.039,0.0398,0.0386,0.0366,0.0393,0.0374,0.036,0.0347,0.0376,0.0363,0.0366,0.0312,0.0311,0.031,0.031,0,0,0.0348,0.0371,0.0374,0.0393,0.0401,0.0414,0.0434,0.0454,0.0482,0.0469,0.0511,0.049,0.0482,0.048,0.0458,0.0455,0.0469,0.0422,0.0421,0.042,0.0475,0.0441,0.0441,0.046,0.0462,0.0462,0.045,0,0.0373,0.0411,0.0414,0.0454,0.0476,0.0476,0.0504,0.052,0.0528,0.0563,0.0551,0.0577,0.0519,0.0532,0.052,0.0492,0.0482,0.0473,0.0442,0.0441,0.0413,0.0446,0.0482,0.0472,0.0453,0.0453,0.0454,0,0.04,0.0424,0.0466,0.051,0.0521,0.0543,0.0592,0.0617,0.0653,0.0665,0.0682,0.0677,0.0684,0.0631,0.0596,0.0594,0.0538,0.0503,0.0501,0.0459,0.0414,0.0441,0.0479,0.0468,0.0459,0.0458,0.0458,0,0.0421,0.0463,0.05,0.0513,0.0558,0.0583,0.0611,0.0648,0.0693,0.0739,0.0786,0.0776,0.0801,0.0737,0.0654,0.0632,0.0611,0.0573,0.0487,0.0483,0.0503,0.0499,0.0537,0.0545,0.0545,0.0545,0.0545,0,0.045,0.0481,0.0515,0.0538,0.06,0.0618,0.069,0.0717,0.0782,0.0865,0.0847,0.0915,0.083,0.0807,0.0703,0.0614,0.0649,0.0506,0.0487,0.0518,0.0516,0.0498,0.0461,0.0545,0.0545,0.0545,0.0545,0,0.047,0.0487,0.0538,0.059,0.0612,0.0659,0.0745,0.0805,0.0857,0.0972,0.1,0.1031,0.1003,0.0897,0.0805,0.0693,0.0581,0.0549,0.0582,0.0565,0.0459,0.0422,0.0407,0.0401,0.0459,0.0458,0.0458,0,0.0484,0.051,0.0575,0.0613,0.0638,0.071,0.077,0.0836,0.0918,0.1053,0.1126,0.1137,0.1167,0.101,0.082,0.0641,0.0582,0.0539,0.0495,0.0473,0.0419,0.0398,0.0393,0.0537,0.0537,0.0537,0.0537,0,0.0514,0.0532,0.0574,0.0651,0.0714,0.08,0.0897,0.0978,0.109,0.1204,0.1343,0.1377,0.1237,0.1102,0.0843,0.07,0.0542,0.0531,0.0521,0.0496,0.0467,0.0446,0.051,0.0538,0.0538,0.0538,0.0538,0.0538,0.0534,0.0566,0.0618,0.0693,0.077,0.0887,0.0988,0.112,0.128,0.1485,0.149,0.1579,0.1376,0.1038,0.0844,0.0562,0.0531,0.0484,0.0444,0.0428,0.0421,0.0471,0.0463,0.0463,0.0462,0.0462,0.0462,0,0.0553,0.0592,0.0661,0.0755,0.0846,0.0889,0.1073,0.1209,0.1428,0.1598,0.1723,0.1694,0.1427,0.1136,0.0749,0.0551,0.0475,0.0444,0.0455,0.0454,0.0525,0.053,0.0524,0.0524,0.0524,0.0524,0.0524,0.0524,0.0565,0.062,0.0654,0.0795,0.0875,0.104,0.1161,0.1384,0.1555,0.1816,0.1913,0.1961,0.1811,0.1094,0.0685,0.0553,0.0468,0.0394,0.0351,0.0431,0.0433,0.0435,0.0436,0.0409,0.0409,0.034,0.0339,0.0339]}],[{"header":{"parameterUnit":"m.s-1","parameterCategory":2,"la1":30.2991,"la2":30.254,"lo1":-89.0895,"lo2":-89.0444,"dy":0.0017,"dx":0.0017,"nx":28,"ny":28,"refTime":"2025-04-18T09:00:00:Z","depth":"2","parameterNumber":2,"parameterNumberName":"U-component_of_CURRENTS"},"data":[0,0,0,0,0,0,0,0,0,0,0,0,0,0,0,0,0,0,0,0,0,0,0,0,0,0,0,0,0,0,0,0,0,0,0,0,0,0,0,0,0,0,0,0,0,0,0,0,0,0,0,0,0,0,0,0,0,0,0.1896,0.1896,0,0.1902,0.1902,0.1902,0.1893,0.1892,0.1892,0.1892,0.1902,0.1903,0.1903,0,0,0,0,0,0,0,0,0,0,0,0,0,0.1897,0.1897,0.1896,0.1896,0.1896,0.1902,0.1902,0.1902,0.1893,0.1892,0.1892,0.1892,0.1902,0.1903,0.1904,0,0,0,0,0,0,0,0,0,0,0,0,0,0.1899,0.1897,0.1896,0.1893,0.1893,0.1902,0.1902,0.1902,0.1893,0.1892,0.1892,0.1892,0.1902,0.1903,0.1904,0.1917,0,0,0.1906,0.1906,0,0,0,0,0,0,0,0,0.1899,0.1899,0.1893,0.1893,0.1893,0.1897,0.1907,0.1908,0.1893,0.1892,0.1892,0.1891,0.1902,0.1903,0.1904,0.1917,0.1918,0.1906,0.1907,0.1907,0.1907,0,0,0,0,0,0,0,0.1898,0.1898,0.1898,0.1893,0.1893,0.1898,0.1898,0.1907,0.1899,0.1892,0.1892,0.1893,0.1901,0.1903,0.1904,0.1918,0.1906,0.1907,0.1907,0.1908,0.1968,0.1969,0,0,0,0,0,0,0.1898,0.1898,0.1898,0.1898,0.1895,0.1899,0.1898,0.1895,0.1898,0.1899,0.1894,0.1893,0.1902,0.1903,0.1904,0.194,0.1907,0.1908,0.1908,0.1967,0.1968,0.197,0,0,0,0,0,0,0.1898,0.1898,0.1897,0.1899,0.1899,0.1899,0.1896,0.1896,0.19,0.19,0.19,0.1899,0.1901,0.1903,0.1918,0.194,0.1908,0.1909,0.1966,0.1967,0.1969,0.2,0,0,0,0,0,0,0.1898,0.1898,0.1899,0.1899,0.1899,0.1907,0.1897,0.1896,0.1902,0.1901,0.1904,0.1904,0.1901,0.1917,0.1919,0.194,0.1909,0.1964,0.1966,0.1968,0.1997,0.2002,0.2006,0,0,0,0,0,0.1898,0.1899,0.1899,0.1899,0.1899,0.1907,0.1908,0.1906,0.1903,0.1908,0.1911,0.1904,0.1932,0.1918,0.192,0.1943,0.1963,0.1966,0.1968,0.1995,0.2001,0.2006,0,0,0,0,0,0,0.19,0.1898,0.1898,0.1898,0.1905,0.1906,0.1911,0.1911,0.1917,0.1918,0.1915,0.1916,0.1944,0.1938,0.1923,0.1967,0.1948,0.1951,0.1968,0.1974,0.1978,0.1986,0.191,0,0,0,0,0,0.1902,0.1901,0.1904,0.1906,0.191,0.1912,0.1916,0.1917,0.1922,0.1924,0.1926,0.1935,0.1956,0.1959,0.1975,0.1991,0.2011,0.2009,0.2013,0.2017,0.2026,0.209,0.2101,0.1978,0.1978,0.1978,0,0,0.1902,0.1903,0.1902,0.1907,0.1911,0.1918,0.1914,0.1923,0.1931,0.1925,0.1938,0.1955,0.1967,0.1992,0.2003,0.1987,0.206,0.202,0.2023,0.2031,0.2094,0.2106,0.2117,0.198,0.1979,0.1979,0,0,0.1905,0.1906,0.1907,0.1915,0.1924,0.1926,0.1931,0.1937,0.1944,0.1963,0.1968,0.1997,0.2012,0.203,0.2041,0.208,0.209,0.2084,0.2105,0.2166,0.2177,0.2187,0.2215,0.2228,0.2077,0.2077,0.2077,0,0.1908,0.1906,0.1911,0.1918,0.1925,0.1931,0.1939,0.1949,0.1959,0.1979,0.1971,0.2033,0.2035,0.2084,0.2093,0.2092,0.2118,0.208,0.2173,0.2183,0.2193,0.222,0.2233,0.2079,0.2079,0.2079,0.2078,0,0.191,0.1913,0.1917,0.1924,0.1936,0.1943,0.1959,0.1975,0.1988,0.2006,0.2062,0.2079,0.2119,0.2124,0.2116,0.2186,0.2179,0.2179,0.2159,0.2207,0.2232,0.2245,0.2081,0.2081,0.208,0.208,0,0,0.1902,0.1914,0.1915,0.1918,0.1939,0.1945,0.1975,0.2007,0.2035,0.2065,0.2116,0.2153,0.2178,0.2192,0.2199,0.2238,0.2314,0.2232,0.2235,0.226,0.2437,0.235,0.2356,0.2337,0.2339,0.2341,0.2422,0,0.19,0.1906,0.1919,0.1929,0.1933,0.1959,0.1988,0.2024,0.206,0.2111,0.216,0.2212,0.22,0.2229,0.2271,0.2314,0.2353,0.2291,0.2387,0.2389,0.2307,0.237,0.2148,0.2195,0.2435,0.2437,0.2439,0,0.1893,0.1899,0.1907,0.1932,0.1938,0.1951,0.2005,0.2034,0.2115,0.2152,0.2224,0.2267,0.2341,0.2322,0.2429,0.2393,0.242,0.2442,0.2446,0.2366,0.2328,0.2189,0.221,0.2461,0.2459,0.2457,0.2456,0,0.1873,0.1888,0.1892,0.1898,0.1932,0.1952,0.1978,0.2049,0.2092,0.2189,0.2249,0.2336,0.2402,0.2459,0.2506,0.2482,0.2615,0.259,0.2536,0.253,0.2358,0.2331,0.2673,0.2673,0.2672,0.2672,0.2672,0,0.1859,0.186,0.188,0.188,0.19,0.1937,0.1982,0.2027,0.2119,0.2187,0.2272,0.2349,0.2447,0.253,0.2547,0.2584,0.2658,0.2556,0.2557,0.2359,0.2333,0.2576,0.2564,0.2675,0.2675,0.2674,0.2673,0,0.1833,0.1844,0.1846,0.1876,0.1887,0.1903,0.1972,0.2011,0.2107,0.2207,0.225,0.2393,0.2491,0.2561,0.2661,0.2638,0.2674,0.2666,0.2409,0.2377,0.2532,0.2521,0.2616,0.2614,0.2612,0.2611,0.261,0,0.1818,0.1815,0.1832,0.1833,0.1843,0.1876,0.1905,0.1993,0.2048,0.2225,0.2275,0.2416,0.2488,0.2592,0.2568,0.2582,0.2655,0.2393,0.2302,0.2542,0.2533,0.2524,0.2515,0.2085,0.208,0.2075,0.2072,0,0.1791,0.1794,0.1795,0.1798,0.1812,0.1837,0.189,0.1936,0.206,0.215,0.2276,0.2349,0.2434,0.2353,0.2371,0.2345,0.2366,0.2301,0.2654,0.2126,0.2046,0.2035,0.2043,0.2032,0.2036,0.2039,0.2041,0.2043,0.1767,0.1757,0.1756,0.1756,0.1771,0.1794,0.1817,0.1887,0.1967,0.2071,0.2175,0.2194,0.2208,0.2107,0.2042,0.1981,0.2147,0.2049,0.2061,0.2079,0.1995,0.1916,0.186,0.1863,0.1866,0.1868,0.187,0,0.1727,0.1722,0.1716,0.1715,0.1711,0.1743,0.1803,0.1805,0.1873,0.1925,0.1985,0.1802,0.1736,0.1746,0.1584,0.1578,0.1544,0.1515,0.1457,0.1498,0.1534,0.142,0.1134,0.1132,0.113,0.1128,0,0,0.1706,0.1678,0.1672,0.1651,0.1659,0.166,0.1688,0.169,0.1704,0.1653,0.1612,0.1682,0.1712,0.1414,0.1362,0.1227,0.1354,0.1168,0.176,0.1735,0.1769,0.1845,0.1718,0,0,0,0,0]},{"header":{"parameterUnit":"m.s-1","parameterCategory":2,"la1":30.2991,"la2":30.254,"lo1":-89.0895,"lo2":-89.0444,"dy":0.0017,"dx":0.0017,"nx":28,"ny":28,"refTime":"2025-04-18T09:00:00:Z","depth":"2","parameterNumber":3,"parameterNumberName":"V-component_of_CURRENTS"},"data":[0,0,0,0,0,0,0,0,0,0,0,0,0,0,0,0,0,0,0,0,0,0,0,0,0,0,0,0,0,0,0,0,0,0,0,0,0,0,0,0,0,0,0,0,0,0,0,0,0,0,0,0,0,0,0,0,0,0,0.0177,0.0176,0,0.0159,0.0158,0.0158,0.0143,0.0143,0.0143,0.0143,0.0121,0.012,0.012,0,0,0,0,0,0,0,0,0,0,0,0,0,0.0177,0.0178,0.0177,0.0176,0.0176,0.0159,0.0158,0.0158,0.0143,0.0143,0.0143,0.0142,0.0121,0.012,0.012,0,0,0,0,0,0,0,0,0,0,0,0,0,0.017,0.0178,0.0177,0.0167,0.0166,0.0159,0.0158,0.0158,0.0143,0.0143,0.0143,0.0142,0.0121,0.0121,0.012,0.012,0,0,0.0118,0.0118,0,0,0,0,0,0,0,0,0.017,0.017,0.0168,0.0167,0.0166,0.0153,0.0151,0.0145,0.0143,0.0151,0.0143,0.0142,0.0132,0.013,0.0127,0.0119,0.0118,0.0118,0.0117,0.0117,0.0117,0,0,0,0,0,0,0,0.0171,0.017,0.0169,0.0168,0.0167,0.0156,0.0155,0.0149,0.0143,0.0151,0.015,0.0148,0.0131,0.0128,0.0126,0.0118,0.0118,0.0117,0.0117,0.0117,0.0115,0.0116,0,0,0,0,0,0,0.0175,0.0171,0.017,0.0169,0.0168,0.0156,0.0155,0.0157,0.0143,0.014,0.0148,0.0147,0.0129,0.0127,0.0125,0.0143,0.0117,0.0116,0.0116,0.0115,0.0115,0.0116,0,0,0,0,0,0,0.0175,0.0175,0.0171,0.0169,0.0168,0.0157,0.0159,0.0157,0.0157,0.0141,0.0138,0.015,0.0129,0.0126,0.0126,0.0141,0.0116,0.0116,0.0114,0.0115,0.0115,0.0166,0,0,0,0,0,0,0.0175,0.0175,0.0179,0.017,0.0168,0.0172,0.0159,0.0157,0.0156,0.0155,0.0142,0.0139,0.0128,0.0127,0.0125,0.014,0.0115,0.0114,0.0115,0.0115,0.0164,0.0168,0.0172,0,0,0,0,0,0.0175,0.0184,0.0179,0.0179,0.0174,0.0173,0.0171,0.0162,0.0156,0.016,0.0151,0.014,0.013,0.0127,0.0124,0.0139,0.0114,0.0114,0.0115,0.0162,0.0167,0.0172,0,0,0,0,0,0,0.0185,0.0183,0.0178,0.0185,0.0181,0.017,0.0173,0.0166,0.0162,0.0161,0.0145,0.0143,0.0147,0.0134,0.0131,0.014,0.012,0.012,0.0156,0.0161,0.0165,0.0182,0.0115,0,0,0,0,0,0.0189,0.0195,0.0189,0.0194,0.0194,0.0184,0.0183,0.0178,0.0172,0.0169,0.016,0.0151,0.0149,0.0148,0.014,0.0146,0.0137,0.0153,0.0157,0.0161,0.0172,0.0175,0.018,0.0118,0.0118,0.0118,0,0,0.0193,0.0193,0.0196,0.0196,0.0192,0.0202,0.0183,0.0185,0.0195,0.0168,0.0177,0.0164,0.0152,0.0159,0.016,0.0151,0.0171,0.0162,0.0165,0.0175,0.0176,0.0182,0.0188,0.0119,0.0119,0.0119,0,0,0.0208,0.0206,0.0217,0.0219,0.0218,0.0215,0.0218,0.0211,0.0211,0.0217,0.0201,0.0201,0.0192,0.019,0.0188,0.021,0.0191,0.0203,0.0241,0.0243,0.0248,0.0253,0.0242,0.0245,0.0207,0.0207,0.0207,0,0.0214,0.0228,0.022,0.0233,0.024,0.0224,0.0241,0.0241,0.0235,0.0243,0.0227,0.0229,0.0211,0.0232,0.0235,0.0221,0.0213,0.0225,0.0249,0.0254,0.0258,0.0245,0.0248,0.0209,0.0209,0.0209,0.0208,0,0.0239,0.0251,0.0258,0.0272,0.0278,0.0289,0.0289,0.0296,0.0293,0.0292,0.0308,0.0288,0.0294,0.0283,0.0265,0.0287,0.0268,0.0254,0.0241,0.0267,0.0252,0.0254,0.0213,0.0212,0.0211,0.021,0,0,0.0252,0.0273,0.0276,0.0294,0.0302,0.0313,0.0332,0.035,0.0377,0.0364,0.0402,0.0382,0.0374,0.0371,0.035,0.0344,0.0353,0.0313,0.0311,0.0308,0.035,0.0322,0.0322,0.0344,0.0345,0.0345,0.0325,0,0.0276,0.0312,0.0314,0.0352,0.0373,0.0373,0.0399,0.0413,0.042,0.0451,0.0438,0.0461,0.0408,0.0422,0.0407,0.0375,0.0363,0.0359,0.0319,0.0318,0.0296,0.0325,0.0309,0.0289,0.0327,0.0327,0.0328,0,0.0303,0.0326,0.0365,0.0406,0.0416,0.0437,0.0483,0.0507,0.0538,0.0548,0.0563,0.0555,0.0558,0.051,0.0468,0.0468,0.0414,0.0377,0.0375,0.0337,0.0296,0.0269,0.0292,0.0331,0.0331,0.0331,0.033,0,0.0325,0.0363,0.0399,0.0411,0.0452,0.0476,0.0503,0.0537,0.0579,0.0621,0.0664,0.0648,0.0671,0.0602,0.0519,0.05,0.0466,0.0431,0.0352,0.0349,0.0322,0.0315,0.0399,0.0399,0.04,0.04,0.04,0,0.0352,0.0382,0.0415,0.0437,0.0496,0.0512,0.0581,0.0607,0.0666,0.0744,0.0724,0.0785,0.0697,0.0667,0.0561,0.0471,0.0499,0.037,0.035,0.0337,0.0332,0.0357,0.0353,0.0399,0.0399,0.0399,0.0399,0,0.0372,0.0389,0.0438,0.0486,0.0507,0.0553,0.0636,0.0693,0.0743,0.085,0.0877,0.09,0.0864,0.0752,0.0653,0.0545,0.0446,0.0399,0.0383,0.0361,0.0312,0.0311,0.0318,0.0317,0.0316,0.0316,0.0315,0,0.0387,0.0411,0.0474,0.0511,0.0535,0.0605,0.0663,0.0726,0.0803,0.0929,0.0997,0.1,0.1013,0.0846,0.0659,0.0476,0.045,0.0338,0.0296,0.0328,0.0308,0.0307,0.0307,0.0273,0.0272,0.0272,0.0271,0,0.0415,0.0434,0.0474,0.0549,0.061,0.0693,0.0787,0.0865,0.0971,0.1073,0.1197,0.1213,0.1063,0.0884,0.0626,0.0491,0.0363,0.0317,0.0376,0.0296,0.0285,0.0265,0.0266,0.0265,0.0266,0.0266,0.0266,0.0267,0.0434,0.0466,0.0517,0.0591,0.0666,0.078,0.088,0.1002,0.115,0.1314,0.1312,0.1321,0.1105,0.0765,0.0543,0.031,0.034,0.0234,0.0237,0.0241,0.0239,0.0227,0.0195,0.0196,0.0196,0.0196,0.0196,0,0.0452,0.0493,0.0559,0.0653,0.0739,0.0786,0.0965,0.1077,0.1279,0.1373,0.1459,0.1206,0.0996,0.0743,0.0401,0.0204,0.0176,0.012,0.0133,0.0141,0.0148,0.0141,0.0072,0.0071,0.007,0.0069,0,0,0.0462,0.0515,0.0549,0.0688,0.0772,0.093,0.105,0.1229,0.1339,0.143,0.1417,0.1355,0.1049,0.0762,0.0488,0.0292,0.026,0.0236,0.0358,0.0417,0.0426,0.0235,0.0237,0,0,0,0,0]}],[{"header":{"parameterUnit":"m.s-1","parameterCategory":2,"la1":30.2991,"la2":30.254,"lo1":-89.0895,"lo2":-89.0444,"dy":0.0017,"dx":0.0017,"nx":28,"ny":28,"refTime":"2025-04-18T09:00:00:Z","depth":"4","parameterNumber":2,"parameterNumberName":"U-component_of_CURRENTS"},"data":[0,0,0,0,0,0,0,0,0,0,0,0,0,0,0,0,0,0,0,0,0,0,0,0,0,0,0,0,0,0,0,0,0,0,0,0,0,0,0,0,0,0,0,0,0,0,0,0,0,0,0,0,0,0,0,0,0,0,0.1124,0.1125,0,0.1151,0.1151,0.1151,0.1183,0.1184,0.1184,0.1185,0.1223,0.1223,0.1223,0,0,0,0,0,0,0,0,0,0,0,0,0,0.1091,0.1091,0.1124,0.1125,0.1125,0.1151,0.1151,0.1151,0.1183,0.1184,0.1184,0.1185,0.1223,0.1223,0.1224,0,0,0,0,0,0,0,0,0,0,0,0,0,0.1108,0.1091,0.1124,0.1145,0.1148,0.1151,0.1151,0.1151,0.1183,0.1184,0.1185,0.1186,0.1222,0.1223,0.1224,0.1208,0,0,0.1225,0.1226,0,0,0,0,0,0,0,0,0.1107,0.1109,0.1142,0.1144,0.1146,0.1166,0.1153,0.1171,0.1182,0.1168,0.1185,0.1186,0.1205,0.1207,0.1208,0.121,0.1211,0.1226,0.1226,0.1226,0.1226,0,0,0,0,0,0,0,0.1106,0.1108,0.1133,0.1142,0.1145,0.115,0.1154,0.1156,0.1179,0.1169,0.1172,0.1177,0.1206,0.1207,0.1209,0.1212,0.1225,0.1226,0.1226,0.1227,0.1284,0.1285,0,0,0,0,0,0,0.1106,0.1107,0.1132,0.1134,0.1131,0.115,0.1154,0.1157,0.1179,0.1184,0.1176,0.1178,0.1205,0.1208,0.121,0.1267,0.1226,0.1227,0.1227,0.1283,0.1284,0.1285,0,0,0,0,0,0,0.1105,0.1108,0.1131,0.1123,0.1126,0.115,0.1153,0.1157,0.1186,0.1185,0.119,0.1204,0.1206,0.1209,0.1238,0.1266,0.1227,0.1228,0.1281,0.1283,0.1285,0.1332,0,0,0,0,0,0,0.1104,0.1107,0.1122,0.1123,0.1127,0.1151,0.1153,0.1157,0.1186,0.119,0.1209,0.1212,0.1207,0.1237,0.1239,0.1266,0.1228,0.128,0.1282,0.1284,0.1329,0.1335,0.134,0,0,0,0,0,0.1102,0.1112,0.1122,0.1126,0.1142,0.1152,0.1155,0.1173,0.1187,0.1202,0.1218,0.1213,0.1252,0.1238,0.124,0.1268,0.1279,0.1282,0.1284,0.1326,0.1334,0.134,0,0,0,0,0,0,0.1107,0.1117,0.1127,0.1142,0.1156,0.1158,0.1177,0.1188,0.1211,0.1225,0.1224,0.1228,0.1266,0.1259,0.1244,0.1291,0.1266,0.1269,0.1298,0.1305,0.1311,0.1315,0.1229,0,0,0,0,0,0.1114,0.1127,0.1136,0.1152,0.1161,0.1174,0.1187,0.1199,0.1214,0.1227,0.124,0.1256,0.1272,0.1283,0.1294,0.1315,0.132,0.1335,0.1341,0.1346,0.1351,0.1392,0.1402,0.1294,0.1294,0.1294,0,0,0.112,0.1129,0.1138,0.1155,0.1168,0.118,0.1185,0.1211,0.1228,0.1226,0.1263,0.1279,0.1283,0.1312,0.1328,0.1313,0.1379,0.1349,0.1353,0.1356,0.1396,0.1407,0.1416,0.1296,0.1295,0.1295,0,0,0.113,0.1149,0.1161,0.1174,0.1199,0.1205,0.1219,0.1238,0.1259,0.1291,0.1298,0.1332,0.1353,0.1362,0.1367,0.141,0.141,0.1418,0.1448,0.1489,0.1498,0.1506,0.1521,0.153,0.1418,0.1418,0.1418,0,0.1142,0.1153,0.1168,0.1181,0.1197,0.1218,0.1235,0.1251,0.1281,0.1305,0.1314,0.1369,0.1376,0.1408,0.1426,0.1424,0.144,0.1421,0.1497,0.1505,0.1513,0.1526,0.1536,0.1421,0.1421,0.142,0.142,0,0.1148,0.1169,0.1179,0.1201,0.1221,0.124,0.1262,0.1292,0.1325,0.1348,0.1406,0.1421,0.1457,0.1465,0.1459,0.1516,0.1508,0.1502,0.1479,0.1526,0.1537,0.1546,0.1425,0.1424,0.1423,0.1422,0,0,0.1142,0.1177,0.1184,0.1198,0.1236,0.1246,0.1285,0.1323,0.1356,0.1402,0.1449,0.1489,0.1519,0.1526,0.1531,0.1562,0.1628,0.1561,0.1561,0.1575,0.1711,0.1587,0.1584,0.1644,0.1646,0.1648,0.1694,0,0.1146,0.117,0.1191,0.122,0.1233,0.1269,0.1299,0.1342,0.1389,0.1439,0.1481,0.1532,0.1534,0.1565,0.16,0.1627,0.1656,0.1616,0.1663,0.1664,0.1548,0.1592,0.1654,0.1701,0.1703,0.1705,0.1706,0,0.1139,0.1158,0.1189,0.1228,0.1239,0.1264,0.1325,0.1356,0.143,0.1473,0.1541,0.1578,0.1642,0.1633,0.1714,0.1693,0.1711,0.1722,0.1724,0.1597,0.1557,0.1645,0.1722,0.1721,0.1719,0.1718,0.1717,0,0.1112,0.1153,0.1179,0.1192,0.1241,0.1272,0.1307,0.1379,0.1414,0.151,0.1556,0.1634,0.1681,0.1732,0.1767,0.1759,0.1837,0.1824,0.1722,0.1713,0.179,0.1781,0.1877,0.1876,0.1876,0.1876,0.1876,0,0.109,0.1111,0.1172,0.1182,0.1219,0.1266,0.1318,0.1367,0.1442,0.1486,0.1581,0.1619,0.1714,0.1765,0.1791,0.1781,0.1864,0.1733,0.1722,0.1807,0.1799,0.1796,0.1786,0.1878,0.1878,0.1877,0.1877,0,0.1049,0.1089,0.1118,0.1182,0.1206,0.1236,0.1312,0.1339,0.1433,0.1493,0.1531,0.1631,0.1703,0.1768,0.1839,0.1792,0.1806,0.1778,0.1858,0.185,0.1649,0.1641,0.1674,0.167,0.1667,0.1664,0.1662,0,0.1025,0.1039,0.1111,0.113,0.1164,0.1216,0.1243,0.1328,0.1355,0.148,0.1491,0.1598,0.1656,0.166,0.1734,0.177,0.1748,0.1732,0.1693,0.1645,0.1632,0.1629,0.1626,0.1657,0.1656,0.1655,0.1654,0,0.0979,0.1018,0.1043,0.1086,0.112,0.1139,0.1188,0.1192,0.1283,0.1392,0.1427,0.1471,0.1533,0.1586,0.1619,0.164,0.1733,0.1697,0.1703,0.1667,0.1624,0.1613,0.1614,0.1643,0.1644,0.1646,0.1646,0,0.095,0.0957,0.0998,0.1022,0.1059,0.1038,0.1071,0.1096,0.1134,0.1271,0.1279,0.1402,0.1509,0.1517,0.1551,0.1562,0.1542,0.1483,0.15,0.1514,0.144,0.136,0.1293,0,0,0,0,0,0.0915,0.0909,0.0926,0.0928,0.0955,0.097,0.1019,0.105,0.1143,0.1136,0.1204,0.1264,0.132,0.1379,0.1362,0.1472,0.1538,0.1442,0.1476,0.158,0.1593,0.152,0,0,0,0,0,0,0.0889,0.0907,0.09,0.0844,0.0825,0.0828,0.0849,0.0905,0.0906,0.1027,0.1071,0.1181,0.1261,0.1328,0.1339,0.1357,0.1348,0.1525,0.1521,0.1572,0.1584,0.1595,0.1525,0,0,0,0,0]},{"header":{"parameterUnit":"m.s-1","parameterCategory":2,"la1":30.2991,"la2":30.254,"lo1":-89.0895,"lo2":-89.0444,"dy":0.0017,"dx":0.0017,"nx":28,"ny":28,"refTime":"2025-04-18T09:00:00:Z","depth":"4","parameterNumber":3,"parameterNumberName":"V-component_of_CURRENTS"},"data":[0,0,0,0,0,0,0,0,0,0,0,0,0,0,0,0,0,0,0,0,0,0,0,0,0,0,0,0,0,0,0,0,0,0,0,0,0,0,0,0,0,0,0,0,0,0,0,0,0,0,0,0,0,0,0,0,0,0,0.0006,0.0006,0,-0.0008,-0.0008,-0.0008,-0.0017,-0.0017,-0.0017,-0.0017,-0.0041,-0.0042,-0.0042,0,0,0,0,0,0,0,0,0,0,0,0,0,0.001,0.0011,0.0006,0.0006,0.0006,-0.0008,-0.0008,-0.0008,-0.0017,-0.0017,-0.0017,-0.0017,-0.0041,-0.0042,-0.0043,0,0,0,0,0,0,0,0,0,0,0,0,0,0.0004,0.0011,0.0006,0.0,-0.0001,-0.0008,-0.0008,-0.0008,-0.0017,-0.0017,-0.0017,-0.0017,-0.0041,-0.0042,-0.0043,-0.0047,0,0,-0.0045,-0.0046,0,0,0,0,0,0,0,0,0.0004,0.0003,0.0001,0.0,-0.0,-0.0011,-0.0015,-0.0022,-0.0017,-0.0011,-0.0017,-0.0017,-0.0032,-0.0033,-0.0036,-0.0048,-0.0049,-0.0045,-0.0046,-0.0046,-0.0047,0,0,0,0,0,0,0,0.0005,0.0004,0.0001,0.0001,0.0,-0.0007,-0.0008,-0.0017,-0.0021,-0.0012,-0.0012,-0.0013,-0.0032,-0.0035,-0.0037,-0.005,-0.0045,-0.0046,-0.0047,-0.0047,-0.0061,-0.006,0,0,0,0,0,0,0.0008,0.0004,0.0001,0.0,0.0002,-0.0007,-0.0008,-0.0007,-0.0021,-0.0023,-0.0013,-0.0014,-0.0034,-0.0036,-0.0038,-0.0031,-0.0046,-0.0047,-0.0048,-0.0061,-0.0061,-0.006,0,0,0,0,0,0,0.0008,0.0008,0.0002,0.0002,0.0001,-0.0007,-0.0006,-0.0008,-0.0008,-0.0022,-0.0024,-0.0012,-0.0034,-0.0036,-0.0041,-0.0033,-0.0048,-0.0049,-0.0061,-0.0061,-0.006,-0.0026,0,0,0,0,0,0,0.0008,0.0008,0.001,0.0002,0.0001,0.0001,-0.0006,-0.0008,-0.0009,-0.001,-0.0022,-0.0024,-0.0034,-0.0039,-0.0042,-0.0034,-0.0049,-0.0061,-0.0061,-0.0061,-0.0028,-0.0025,-0.0022,0,0,0,0,0,0.0008,0.0012,0.001,0.0009,0.0004,0.0001,0.0,-0.0006,-0.0009,-0.0007,-0.0015,-0.0024,-0.0039,-0.004,-0.0043,-0.0035,-0.0061,-0.0061,-0.0061,-0.0029,-0.0025,-0.0022,0,0,0,0,0,0,0.0013,0.0011,0.0009,0.0011,0.0008,0.0,0.0001,-0.0003,-0.0008,-0.0008,-0.0022,-0.0024,-0.0026,-0.0036,-0.0037,-0.0039,-0.0052,-0.0052,-0.0027,-0.0023,-0.0021,-0.0012,-0.005,0,0,0,0,0,0.0015,0.0018,0.0014,0.0016,0.0016,0.0009,0.0007,0.0004,-0.0001,-0.0003,-0.0012,-0.0021,-0.0027,-0.0029,-0.0039,-0.0038,-0.0053,-0.0036,-0.0033,-0.0031,-0.0026,-0.004,-0.0038,-0.0059,-0.0059,-0.0059,0,0,0.0017,0.0017,0.0018,0.0017,0.0014,0.002,0.0008,0.0009,0.0016,-0.0005,-0.0,-0.0014,-0.0026,-0.0026,-0.0028,-0.0032,-0.0034,-0.0031,-0.0028,-0.0024,-0.004,-0.0038,-0.0036,-0.0059,-0.0059,-0.0059,0,0,0.0024,0.0022,0.0029,0.003,0.003,0.0028,0.003,0.0025,0.0025,0.0028,0.0014,0.0007,-0.0002,-0.0008,-0.0013,-0.0002,-0.0022,-0.0006,0.0018,0.0004,0.0006,0.0007,-0.0012,-0.0012,-0.0002,-0.0002,-0.0002,0,0.0026,0.0035,0.003,0.0038,0.0043,0.0035,0.0046,0.0045,0.004,0.0043,0.0034,0.0022,0.0009,0.0011,0.0015,0.0005,-0.0009,0.0009,0.0008,0.0009,0.001,-0.001,-0.0011,-0.0,-0.0,-0.0001,-0.0001,0,0.004,0.0048,0.0053,0.0063,0.0067,0.0075,0.0076,0.0081,0.0079,0.0077,0.0077,0.0058,0.0053,0.0045,0.0034,0.0035,0.0021,0.0011,0.0002,0.0014,-0.0008,-0.0009,0.0002,0.0002,0.0001,0.0001,0,0,0.0044,0.006,0.0062,0.0075,0.0083,0.0089,0.0104,0.0115,0.0129,0.0118,0.0132,0.0113,0.0102,0.0096,0.0077,0.0064,0.0054,0.0044,0.0042,0.0029,0.002,0.0023,0.0021,0.0044,0.0044,0.0044,0.0001,0,0.0058,0.0081,0.0086,0.0111,0.0124,0.0128,0.0145,0.0153,0.0156,0.0166,0.0148,0.0152,0.0122,0.0124,0.0104,0.007,0.0052,0.0066,0.0007,0.0005,0.001,0.002,0.0044,-0.0,-0.0001,-0.0001,-0.0001,0,0.0072,0.0087,0.0114,0.0142,0.0149,0.0165,0.0193,0.0209,0.022,0.0222,0.0219,0.0204,0.0191,0.0162,0.0107,0.0118,0.0073,0.0039,0.0037,0.0028,0.0006,-0.0015,-0.0005,-0.0004,-0.0004,-0.0004,-0.0004,0,0.008,0.0108,0.0132,0.0141,0.017,0.0188,0.0208,0.0226,0.025,0.0263,0.028,0.0251,0.0246,0.019,0.0123,0.0117,0.0056,0.0038,-0.0005,-0.0006,-0.0013,-0.0014,-0.0005,-0.0005,-0.0005,-0.0005,-0.0005,0,0.0092,0.0112,0.014,0.0154,0.0193,0.0208,0.0249,0.0265,0.0296,0.0333,0.0313,0.0327,0.0253,0.0211,0.014,0.0067,0.0068,0.0003,-0.0013,0.0002,0.0003,-0.0014,-0.0015,-0.0007,-0.0006,-0.0006,-0.0006,0,0.0094,0.0112,0.0143,0.018,0.0197,0.0226,0.0282,0.0314,0.0341,0.039,0.0402,0.0384,0.0339,0.0257,0.0164,0.0097,0.0023,-0.0009,0.0016,0.0001,-0.0038,-0.0036,-0.0056,-0.0056,-0.0057,-0.0057,-0.0057,0,0.0096,0.0111,0.016,0.0186,0.0205,0.0252,0.0291,0.0333,0.0374,0.0426,0.0454,0.0429,0.0406,0.0284,0.0183,0.0054,0.0027,-0.0023,-0.0033,-0.0028,-0.0041,-0.0039,-0.0037,-0.0057,-0.0057,-0.0057,-0.0057,0,0.0097,0.0114,0.0141,0.0197,0.0241,0.0297,0.0357,0.0394,0.0455,0.0475,0.0511,0.0461,0.0406,0.0298,0.0198,0.01,0.0007,-0.0025,-0.0026,-0.0036,-0.0029,-0.0042,-0.004,-0.0057,-0.0057,-0.0057,-0.0057,0,0.0096,0.0114,0.0154,0.0206,0.0265,0.0338,0.0367,0.0429,0.0476,0.054,0.0541,0.0496,0.0459,0.0322,0.023,0.0139,0.0107,0.0057,0.0051,0.0051,0.0091,0.0116,0.0124,0,0,0,0,0,0.0096,0.012,0.0164,0.0232,0.0294,0.034,0.0414,0.0445,0.0502,0.0538,0.055,0.0508,0.0394,0.0337,0.025,0.0205,0.0073,0.0095,0.0009,-0.006,-0.0059,-0.003,0,0,0,0,0,0,0.0095,0.013,0.0159,0.0247,0.0304,0.0386,0.044,0.0481,0.0504,0.0541,0.0484,0.047,0.0355,0.0453,0.0246,0.0218,0.0145,0.0045,0.0042,-0.006,-0.006,-0.0059,-0.0029,0,0,0,0,0]}]]